Wind_Speed
11 13 14 15 16 16 17 19 20 21 22 24 25 26 26 27 27 28 30 31 33 34 35 36 36 36 36 37 36 36 36 35 36 36 37 38 37 38 39 40 41 41
13 15 16 17 18 18 19 19 21 22 23 24 25 26 27 27 29 30 32 33 34 34 35 35 36 36 36 36 36 36 36 36 37 38 38 38 38 39 40 41 42 42
15 16 17 17 17 18 18 19 20 22 23 24 25 27 28 29 30 31 32 33 34 34 35 35 35 35 36 36 36 36 36 37 38 38 38 38 38 40 42 43 44 44
16 16 16 16 17 17 19 20 22 23 25 26 27 28 29 30 31 32 33 34 34 35 35 35 35 35 35 36 36 36 37 38 39 38 38 38 40 42 44 45 45 44
15 15 15 16 17 19 21 23 25 26 27 27 28 29 29 30 31 32 33 34 35 35 35 35 35 35 35 36 36 37 38 39 39 38 39 40 42 44 45 45 45 44
15 16 17 18 20 22 24 25 26 27 27 28 28 29 29 30 31 33 34 35 35 35 34 34 35 35 36 36 37 38 39 39 39 39 40 42 45 46 46 46 46 46
17 18 20 21 22 24 25 26 27 27 28 28 29 29 30 31 32 34 35 35 34 34 34 35 35 36 36 37 38 38 38 38 38 40 42 44 45 45 46 46 47 47
20 21 22 23 24 25 26 27 28 28 29 29 30 30 31 32 33 34 34 34 34 34 34 35 36 36 36 37 38 37 36 37 39 42 43 44 45 45 46 46 46 46
21 22 23 23 24 26 27 28 29 29 29 30 30 31 32 33 33 33 34 34 33 33 34 35 35 36 36 37 35 34 36 39 41 43 43 44 45 45 45 45 46 47
21 22 23 24 25 26 28 29 29 30 30 31 31 32 32 33 33 33 33 33 32 32 34 34 35 35 34 33 33 35 39 41 42 43 44 44 45 45 45 45 46 48
22 23 24 25 26 27 29 30 30 31 31 31 32 32 32 32 32 32 32 31 31 32 33 34 34 33 32 32 35 39 41 42 42 43 44 44 44 44 45 46 48 49
24 25 25 26 27 28 30 31 31 31 32 32 32 32 32 32 32 32 31 31 31 33 34 35 35 34 34 36 39 41 41 41 42 43 43 43 44 45 46 47 48 49
26 27 27 28 29 30 31 32 32 32 32 33 33 32 32 32 31 31 31 31 33 34 35 36 35 36 37 39 40 40 40 41 42 42 43 44 45 47 48 48 48 49
28 29 29 30 31 32 32 33 33 33 33 33 33 32 32 31 30 30 31 32 34 34 35 35 35 36 38 39 39 39 40 41 41 42 44 45 46 47 48 48 48 49
30 30 31 31 32 33 33 33 33 33 34 33 32 32 31 30 29 30 31 32 33 33 33 34 35 36 37 37 38 39 40 41 42 44 45 46 46 47 47 48 48 49
31 31 32 33 33 34 33 33 33 34 34 33 32 30 29 29 30 31 31 31 31 32 33 33 34 35 36 37 38 39 40 42 43 44 45 45 46 46 47 48 49 49
31 33 33 33 34 34 34 33 33 34 33 32 31 29 29 30 30 30 30 30 31 31 32 33 33 34 35 37 38 39 41 42 43 44 45 45 45 46 47 48 49 49
32 33 34 34 34 34 34 33 33 34 33 31 30 29 29 29 29 29 29 30 30 30 31 32 33 34 36 37 38 40 41 42 43 44 44 45 45 46 47 47 47 46
33 34 34 34 34 35 34 33 33 33 32 30 29 29 29 28 28 29 29 29 29 30 30 31 33 34 36 37 39 40 41 42 43 44 44 45 45 46 46 45 44 44
34 35 35 35 35 34 34 33 33 32 30 29 29 28 28 28 28 28 28 28 29 29 30 32 33 35 36 38 39 40 41 42 43 43 44 45 45 45 44 43 42 41
35 35 35 35 34 34 34 33 32 30 29 28 28 28 27 27 27 27 27 28 28 29 30 32 34 35 37 38 39 40 41 42 42 43 44 44 44 43 42 41 40 40
36 36 35 35 34 34 33 32 31 29 28 28 28 27 27 27 27 27 27 28 28 29 31 33 34 36 37 38 39 40 41 41 41 43 43 43 42 41 40 39 39 40
36 36 35 35 34 33 32 31 30 28 28 27 28 27 27 27 27 27 27 28 29 30 31 33 35 36 37 38 39 40 40 40 41 42 42 41 39 38 38 38 39 39
36 36 35 34 33 32 31 31 30 29 28 28 28 27 27 26 26 27 27 28 29 30 32 34 35 36 37 38 38 39 39 40 41 41 40 38 37 37 37 38 38 39
37 37 35 33 32 31 31 30 30 29 28 28 28 27 27 26 26 26 27 28 29 31 32 34 35 36 37 37 38 38 39 40 40 39 37 36 36 36 37 37 37 37
37 35 33 32 31 31 31 30 29 28 28 28 28 27 26 26 26 27 27 28 29 31 32 34 35 36 36 37 37 38 38 39 38 36 35 34 35 36 36 37 37 37
Wind_Direction
270 274 277 280 284 287 290 292 294 295 296 296 297 298 300 302 303 304 304 304 304 304 305 306 307 308 309 310 311 312 312 312 312 312 312 313 314 314 314 314 315 315
271 276 280 284 288 289 290 292 294 295 295 297 298 300 302 303 303 303 303 303 303 304 305 306 307 308 309 310 311 311 311 312 312 312 313 313 313 314 314 314 314 314
277 280 283 285 288 291 293 295 296 297 298 300 301 302 303 303 303 302 302 302 303 305 306 307 308 309 310 310 311 311 311 312 312 312 312 313 313 313 314 314 313 313
281 284 287 290 294 297 299 300 300 301 302 303 303 303 303 303 303 302 303 304 305 306 308 309 309 310 310 310 310 310 311 311 312 312 312 312 313 313 314 314 313 313
283 287 291 296 300 302 302 302 302 302 303 304 304 304 303 304 303 304 305 305 306 307 308 309 310 310 310 310 310 310 311 312 312 312 311 312 313 313 313 313 313 313
288 292 296 299 302 302 302 302 302 303 304 304 304 305 305 305 305 305 305 305 306 307 308 309 309 309 310 310 310 311 312 312 312 311 311 312 312 312 312 312 313 313
292 295 298 301 302 303 302 302 303 304 305 305 306 306 306 305 304 304 304 305 306 307 308 308 308 309 310 310 311 312 311 311 311 311 310 310 311 312 312 312 312 311
293 296 299 301 302 303 303 303 304 304 305 305 306 306 305 304 304 303 304 305 306 307 307 308 308 309 310 310 311 310 310 310 310 310 310 310 311 312 312 311 311 310
292 294 297 299 301 302 303 303 304 304 304 304 304 304 304 303 303 304 304 305 306 307 308 309 309 309 309 309 309 309 309 310 311 311 311 311 312 312 311 311 310 310
289 292 295 298 300 302 302 303 303 303 303 303 303 303 303 303 303 304 305 307 308 310 311 311 310 309 309 309 309 309 311 311 312 312 312 312 312 311 311 311 311 311
288 291 295 297 299 301 302 302 302 302 302 302 302 303 303 303 303 304 307 309 311 312 312 312 311 310 309 310 311 311 312 312 312 312 311 311 311 311 312 312 312 312
288 291 294 297 300 301 301 302 302 303 302 302 302 303 303 304 304 306 309 311 312 313 312 311 310 310 309 311 312 313 313 313 312 311 311 311 312 312 313 313 313 313
289 292 296 299 301 302 302 303 303 303 302 302 303 303 304 305 306 308 311 312 312 312 311 310 309 308 309 311 313 314 313 312 311 312 312 313 314 314 314 314 314 314
289 293 297 299 301 302 302 303 303 302 302 302 303 304 305 306 308 310 312 313 312 312 311 309 308 308 310 312 314 313 312 312 313 314 315 315 315 315 315 315 315 315
288 292 296 298 300 301 301 302 302 302 302 302 303 305 306 308 309 311 312 312 312 312 311 310 310 311 312 313 313 313 313 314 315 316 315 315 315 315 315 316 316 317
288 290 294 297 299 300 300 301 301 301 301 302 304 306 307 308 309 311 312 312 312 312 312 312 312 313 313 313 314 314 315 316 316 315 315 315 315 316 316 317 318 318
286 288 292 296 298 298 299 300 300 300 300 301 304 306 307 308 309 311 311 311 312 312 312 313 313 313 313 314 315 316 317 316 315 315 315 316 317 318 319 320 320 321
284 287 291 294 296 297 298 299 298 298 299 301 304 305 306 308 309 310 310 310 312 312 312 312 312 313 315 316 317 317 316 316 316 316 317 318 319 320 321 322 322 323
283 286 289 292 295 296 297 297 297 297 298 300 302 304 305 307 308 308 309 311 311 311 311 312 314 315 317 317 317 317 316 316 317 317 319 320 321 322 323 323 324 325
282 285 289 292 294 295 295 295 295 296 298 300 301 303 304 305 306 308 309 310 310 310 312 314 316 317 317 317 317 317 317 317 318 319 320 321 322 324 325 325 326 326
282 285 288 290 292 292 293 293 294 296 298 299 301 302 303 304 306 307 308 309 309 311 313 316 317 317 317 317 317 317 318 319 320 321 322 323 324 325 326 327 327 328
281 284 287 289 290 290 291 292 294 295 297 299 300 300 302 304 305 307 308 308 309 312 315 317 318 318 317 317 317 318 319 320 321 322 323 325 326 327 328 329 329 330
281 283 285 287 288 289 291 293 294 295 296 297 298 299 301 303 305 306 307 307 310 313 316 317 318 317 317 318 318 319 321 322 323 324 325 327 328 329 330 331 331 331
280 282 284 286 287 290 292 293 294 293 294 295 297 298 300 302 304 305 305 307 311 314 316 317 317 317 317 318 319 321 322 323 325 326 327 328 330 331 332 332 333 333
279 281 283 285 287 290 292 293 293 292 292 294 296 297 299 300 302 303 305 308 311 314 316 316 316 317 318 319 321 322 324 325 326 327 329 330 332 333 334 334 334 334
277 279 282 285 288 290 292 293 292 291 291 293 295 296 297 299 300 302 304 308 312 314 315 315 316 317 319 320 322 323 325 326 327 328 330 332 334 335 336 336 336 338
Height
5819 5819 5819 5819 5819 5819 5819 5819 5818 5818 5818 5817 5817 5816 5815 5814 5813 5813 5812 5810 5809 5807 5806 5804 5803 5801 5799 5798 5796 5794 5793 5791 5789 5787 5785 5783 5780 5778 5776 5774 5771 5769
5818 5817 5817 5817 5817 5817 5817 5817 5816 5816 5815 5815 5814 5813 5812 5811 5810 5810 5808 5807 5806 5804 5802 5801 5799 5797 5796 5794 5792 5791 5789 5787 5785 5783 5781 5779 5776 5774 5772 5770 5767 5764
5815 5815 5815 5815 5815 5815 5814 5814 5814 5813 5813 5812 5811 5810 5809 5808 5807 5806 5805 5804 5802 5800 5799 5797 5795 5794 5792 5790 5789 5787 5785 5783 5781 5779 5777 5775 5772 5770 5768 5765 5763 5760
5813 5813 5813 5812 5812 5812 5812 5812 5811 5811 5810 5809 5808 5807 5806 5805 5804 5803 5802 5800 5798 5796 5795 5793 5791 5790 5788 5787 5785 5783 5782 5780 5777 5775 5773 5771 5768 5766 5763 5760 5758 5755
5811 5810 5810 5810 5810 5810 5810 5810 5809 5808 5807 5806 5805 5804 5803 5802 5801 5799 5798 5796 5794 5793 5791 5789 5788 5786 5785 5783 5782 5780 5778 5776 5773 5771 5769 5767 5764 5762 5759 5756 5753 5751
5808 5809 5809 5809 5809 5808 5808 5807 5806 5805 5804 5803 5802 5801 5800 5799 5797 5796 5794 5792 5790 5789 5787 5786 5784 5783 5781 5780 5778 5776 5774 5772 5769 5767 5765 5763 5760 5757 5754 5751 5748 5746
5806 5806 5806 5806 5806 5806 5805 5804 5803 5802 5801 5800 5799 5798 5797 5795 5794 5792 5790 5788 5787 5785 5784 5782 5781 5779 5778 5776 5774 5772 5770 5768 5766 5763 5761 5758 5756 5753 5750 5746 5743 5741
5804 5804 5804 5804 5803 5803 5802 5801 5800 5799 5798 5797 5796 5795 5793 5792 5790 5788 5786 5785 5783 5782 5780 5779 5777 5775 5773 5771 5769 5768 5766 5764 5762 5759 5757 5754 5752 5749 5745 5742 5739 5736
5802 5802 5802 5802 5801 5800 5799 5798 5797 5796 5795 5794 5793 5791 5790 5788 5786 5784 5783 5781 5780 5778 5777 5775 5773 5771 5769 5767 5765 5764 5762 5760 5758 5755 5752 5750 5747 5744 5741 5737 5734 5731
5800 5800 5800 5799 5798 5798 5797 5796 5795 5793 5792 5791 5789 5787 5786 5784 5783 5781 5779 5778 5776 5775 5773 5771 5769 5767 5765 5763 5762 5760 5758 5756 5753 5751 5748 5745 5742 5740 5736 5733 5729 5726
5797 5797 5797 5797 5796 5795 5794 5793 5791 5790 5789 5787 5785 5784 5782 5780 5779 5777 5776 5774 5773 5771 5769 5767 5765 5764 5762 5760 5759 5757 5754 5751 5749 5746 5743 5741 5738 5735 5732 5728 5725 5721
5795 5795 5794 5793 5793 5792 5790 5789 5788 5786 5785 5783 5782 5780 5778 5777 5775 5774 5772 5771 5769 5767 5766 5764 5762 5761 5759 5757 5755 5753 5750 5748 5745 5742 5739 5736 5733 5730 5727 5724 5720 5716
5792 5791 5791 5790 5789 5788 5787 5785 5784 5783 5781 5780 5778 5776 5775 5773 5772 5770 5769 5767 5765 5764 5762 5761 5759 5757 5756 5753 5751 5749 5746 5744 5741 5738 5735 5732 5728 5725 5722 5718 5715 5711
5788 5788 5787 5786 5785 5784 5783 5782 5780 5779 5778 5776 5774 5773 5771 5770 5768 5767 5765 5764 5762 5760 5759 5757 5756 5754 5752 5750 5748 5745 5743 5740 5737 5734 5731 5727 5724 5720 5717 5713 5709 5706
5785 5784 5784 5783 5782 5781 5780 5778 5777 5776 5774 5773 5771 5769 5768 5767 5765 5764 5762 5760 5759 5757 5756 5754 5753 5751 5749 5747 5744 5742 5739 5736 5733 5730 5727 5723 5719 5716 5713 5708 5704 5700
5782 5781 5780 5780 5779 5778 5776 5775 5774 5772 5771 5769 5768 5766 5765 5763 5762 5761 5759 5757 5756 5754 5753 5751 5749 5747 5745 5743 5741 5738 5735 5732 5729 5726 5723 5719 5715 5711 5708 5704 5699 5695
5778 5778 5777 5777 5776 5774 5773 5772 5770 5769 5767 5766 5764 5763 5762 5760 5759 5757 5756 5755 5753 5751 5750 5748 5746 5744 5742 5740 5737 5735 5732 5729 5726 5722 5719 5715 5711 5706 5702 5698 5694 5690
5775 5775 5774 5773 5772 5771 5770 5768 5767 5765 5764 5763 5761 5760 5758 5757 5756 5755 5753 5752 5750 5749 5747 5745 5743 5741 5739 5737 5734 5731 5728 5725 5722 5719 5715 5711 5707 5702 5698 5694 5690 5686
5772 5771 5771 5770 5769 5768 5766 5765 5764 5762 5761 5759 5758 5757 5756 5754 5753 5752 5750 5749 5748 5746 5745 5743 5741 5738 5736 5733 5731 5728 5725 5722 5718 5714 5711 5707 5702 5698 5694 5690 5686 5682
5768 5768 5767 5766 5765 5764 5763 5762 5760 5759 5758 5756 5755 5754 5753 5752 5750 5749 5748 5746 5745 5743 5742 5740 5737 5735 5733 5730 5727 5724 5721 5718 5714 5710 5706 5702 5698 5694 5690 5686 5682 5678
5765 5764 5764 5763 5762 5761 5760 5758 5757 5756 5755 5753 5752 5751 5750 5749 5748 5747 5745 5744 5742 5741 5739 5737 5734 5732 5730 5727 5724 5721 5718 5714 5710 5706 5702 5698 5694 5690 5686 5682 5679 5675
5761 5761 5760 5759 5758 5757 5756 5755 5754 5753 5752 5751 5750 5749 5747 5746 5745 5744 5742 5741 5739 5738 5736 5733 5731 5729 5726 5724 5721 5717 5714 5710 5707 5703 5698 5694 5691 5687 5683 5679 5675 5671
5757 5757 5756 5756 5755 5754 5753 5752 5751 5750 5749 5748 5747 5746 5744 5743 5742 5741 5740 5738 5736 5735 5733 5730 5728 5726 5723 5720 5717 5714 5710 5707 5703 5699 5695 5691 5687 5684 5680 5676 5672 5668
5754 5753 5753 5752 5751 5751 5750 5749 5748 5747 5746 5745 5744 5743 5741 5740 5739 5738 5737 5735 5733 5731 5729 5727 5725 5722 5720 5717 5714 5710 5707 5703 5699 5695 5692 5688 5684 5681 5677 5673 5669 5666
5750 5750 5750 5749 5748 5747 5746 5745 5745 5744 5743 5742 5741 5740 5738 5737 5736 5735 5734 5732 5730 5728 5726 5724 5722 5719 5716 5713 5710 5707 5703 5699 5696 5692 5689 5685 5681 5678 5674 5671 5667 5663
5747 5746 5746 5745 5745 5744 5743 5742 5742 5741 5740 5739 5738 5737 5735 5734 5733 5732 5731 5729 5727 5726 5723 5721 5719 5716 5713 5710 5707 5703 5700 5696 5693 5689 5686 5683 5679 5675 5672 5668 5664 5660